Regional Weather Roundup
Issued by NWS Charleston, WV

Home | Current Version | Previous Version | Graphics & Text | Print | Product List | Glossary On
Versions: 1 2 3 4 5 6 7 8 9 10 11 12 13 14 15 16 17 18 19 20 21 22 23 24 25 26 27
000
ASUS41 KRLX 180710
RWRRLX
West Virginia Regional Weather Roundup
National Weather Service Charleston WV
300 AM EDT FRI APR 18 2014

Note: "fair" indicates few or no clouds below 12,000 feet with no
significant weather and/or obstructions to visibility.

WVZ003-180800-
Northern Panhandle of West Virginia

CITY           SKY/WX    TMP DP  RH WIND       PRES   REMARKS
WHEELING       CLEAR     47  26  44 SE6       30.30F
$$

WVZ009-180800-
Northwest West Virginia

CITY           SKY/WX    TMP DP  RH WIND       PRES   REMARKS
PARKERSBURG    CLEAR     51  23  33 SE5       30.32F
$$

WVZ006-180800-
Western West Virginia

CITY           SKY/WX    TMP DP  RH WIND       PRES   REMARKS
HUNTINGTON     MOCLDY    52  24  33 SE5       30.26F
$$

WVZ015-180800-
West Central West Virginia

CITY           SKY/WX    TMP DP  RH WIND       PRES   REMARKS
CHARLESTON     MOCLDY    52  24  33 SE3       30.29F
$$

WVZ031-180800-
North Central West Virginia

CITY           SKY/WX    TMP DP  RH WIND       PRES   REMARKS
CLARKSBURG     PTCLDY    47  23  38 SE5       30.32F
MORGANTOWN     CLEAR     46  24  42 SE6       30.33F
$$

WVZ035-042-045-180800-
South Central West Virginia

CITY           SKY/WX    TMP DP  RH WIND       PRES   REMARKS
BECKLEY        MOCLDY    45  22  40 SE9G21    30.34F
BLUEFIELD      MOCLDY    46  21  37 MISG      30.36S
LEWISBURG      MOCLDY    32  24  73 NE3       30.38F
$$

WVZ047-180800-
Northern Mountains of West Virginia

CITY           SKY/WX    TMP DP  RH WIND       PRES   REMARKS
ELKINS         PTCLDY    41  22  46 SE6       30.35F
$$

WVZ052-180800-
Eastern Panhandle of West Virginia

CITY           SKY/WX    TMP DP  RH WIND       PRES   REMARKS
MARTINSBURG    CLEAR     37  30  75 E3        30.49F
PETERSBURG       N/A     37  34  87 CALM      30.43S
$$



USA.gov is the U.S. government's official web portal to all federal, state and local government web resources and services.